Location: Emory University Observatory
(33.7903°N, 84.3267°W)
Time: 10:57:34
(UTC-05:00)

Vanguard 1 - All Passes

Search period start: 15 December 2017 00:00
Search period end: 25 December 2017 00:00
Orbit: 650 x 3833 km, 34.2° (Epoch: 13 December)

Date Brightness Start Highest point End Pass type
(mag) Time Alt. Az. Time Alt. Az. Time Alt. Az.
15 Dec - 06:12:50 10° SSW 06:32:09 35° SE 06:49:31 10° E visible
15 Dec - 08:34:27 10° SW 08:57:47 68° SSE 09:13:54 10° ENE daylight
15 Dec - 11:02:06 10° W 11:23:29 89° N 11:35:18 10° E daylight
15 Dec - 13:31:23 10° W 13:47:14 80° SSW 13:55:22 10° ESE daylight
15 Dec - 15:59:07 10° W 16:07:35 29° SW 16:13:00 10° SSE daylight
16 Dec - 04:20:07 10° SSE 04:29:01 14° SE 04:38:06 10° ESE visible
16 Dec - 06:32:31 10° SSW 06:53:19 44° SE 07:11:36 10° E visible
16 Dec - 08:55:43 10° WSW 09:19:20 76° SSE 09:35:08 10° ENE daylight
16 Dec - 11:24:10 10° W 11:45:03 88° N 11:56:24 10° E daylight
16 Dec - 13:53:18 10° WNW 14:08:20 70° SSW 14:16:10 10° ESE daylight
16 Dec - 16:21:33 10° W 16:27:58 20° SW 16:32:33 10° S daylight
17 Dec - 04:36:09 10° S 04:49:57 21° SE 05:04:11 10° E visible
17 Dec - 06:52:42 10° SW 07:14:36 52° SE 07:33:22 10° ENE visible
17 Dec - 09:17:16 10° WSW 09:40:57 83° SSE 09:56:22 10° E daylight
17 Dec - 11:46:15 10° W 12:06:35 89° N 12:17:28 10° E daylight
17 Dec - 14:15:10 10° WNW 14:29:17 57° SSW 14:36:49 10° SE daylight
17 Dec - 16:45:17 10° WSW 16:48:15 12° SW 16:50:47 10° SSW daylight
18 Dec - 04:54:19 10° S 05:10:51 28° SE 05:27:58 10° E visible
18 Dec - 07:13:16 10° SW 07:35:58 61° SSE 07:54:55 10° ENE visible
18 Dec - 09:39:01 10° WSW 10:02:37 88° S 10:17:33 10° E daylight
18 Dec - 12:08:20 10° W 12:28:04 87° S 12:38:30 10° ESE daylight
18 Dec - 14:37:07 10° WNW 14:50:01 45° SW 14:57:13 10° SSE daylight
19 Dec - 05:13:26 10° SSW 05:31:47 36° SE 05:50:45 10° E visible
19 Dec - 07:34:10 10° SW 07:57:27 70° SSE 08:16:20 10° ENE daylight
19 Dec - 10:00:56 10° W 10:24:21 89° N 10:38:45 10° E daylight
19 Dec - 12:30:21 10° W 12:49:24 80° SSW 12:59:27 10° ESE daylight
19 Dec - 14:59:13 10° W 15:10:33 34° SW 15:17:21 10° SSE daylight
20 Dec - 03:21:32 10° SSE 03:29:24 13° SE 03:37:52 10° ESE visible
20 Dec - 05:33:10 10° SSW 05:52:48 45° SE 06:12:56 10° ENE visible
20 Dec - 07:55:22 10° WSW 08:19:03 77° SSE 08:37:42 10° ENE daylight
20 Dec - 10:22:58 10° W 10:46:05 88° N 10:59:56 10° E daylight
20 Dec - 12:52:21 10° WNW 13:10:37 71° SSW 13:20:16 10° ESE daylight
20 Dec - 15:21:41 10° W 15:30:55 24° SW 15:37:01 10° S daylight
21 Dec - 03:37:33 10° SSE 03:50:05 20° SE 04:04:14 10° E visible
21 Dec - 05:53:20 10° SW 06:13:56 54° SE 06:34:48 10° ENE visible
21 Dec - 08:16:49 10° WSW 08:40:46 84° SSE 08:59:01 10° E daylight
21 Dec - 10:45:01 10° W 11:07:46 90° N 11:21:06 10° E daylight
21 Dec - 13:14:19 10° WNW 13:31:38 60° SSW 13:40:55 10° SE daylight
21 Dec - 15:44:59 10° W 15:51:09 16° SW 15:55:49 10° SSW daylight
22 Dec - 03:55:46 10° S 04:10:44 28° SE 04:28:10 10° E visible
22 Dec - 06:13:52 10° SW 06:35:13 63° SSE 06:56:28 10° ENE visible
22 Dec - 08:38:28 10° WSW 09:02:34 88° S 09:20:20 10° E daylight
22 Dec - 11:07:04 10° W 11:29:23 87° SSW 11:42:12 10° ESE daylight
22 Dec - 13:36:20 10° WNW 13:52:25 49° SW 14:01:21 10° SE daylight
23 Dec - 04:14:55 10° SSW 04:31:27 36° SE 04:51:03 10° E visible
23 Dec - 06:34:43 10° SW 06:56:41 71° SSE 07:18:01 10° ENE visible
23 Dec - 09:00:16 10° W 09:24:27 89° N 09:41:40 10° E daylight
23 Dec - 11:29:05 10° WNW 11:50:52 80° SSW 12:03:11 10° ESE daylight
23 Dec - 13:58:32 10° WNW 14:12:59 38° SW 14:21:31 10° SSE daylight
24 Dec - 02:24:21 10° SE 02:30:02 12° ESE 02:36:17 10° ESE visible
24 Dec - 04:34:39 10° SSW 04:52:17 45° SE 05:13:24 10° ENE visible
24 Dec - 06:55:49 10° WSW 07:18:18 78° SSE 07:39:31 10° ENE visible
24 Dec - 09:22:10 10° W 09:46:19 88° N 10:02:58 10° E daylight
24 Dec - 11:51:04 10° WNW 12:12:10 72° SSW 12:24:03 10° ESE daylight
24 Dec - 14:21:03 10° W 14:33:23 28° SW 14:41:14 10° S daylight
